STARLINK-2511 (48332 NORAD) Tracking and Keplerian Element Data

This shows tracking and keplerian element data for the satellite.

Feedback or suggestion? Click here.




ElementValue
Catalog48332
NameSTARLINK-2511
Epoch Orbit193
Epoch Day173.83334491
Epoch Year2021
RAAN266.829
Inclination53.0538
Eccentricity0.0001567
Argument of Perigee120.3798
Mean Anonmoly234.2583
Mean Motion15.06408618
Decay Rate-0.00020117
L11 48332U 21036BJ 21173.83334491 -.00020117 00000-0 -13351-2 0 9999
L22 48332 53.0538 266.8290 0001567 120.3798 234.2583 15.06408618 1937

Live tracking and technical data element details for STARLINK-2511 (NORAD 48332). STARLINK-2511 can be tracked NOW for your location showing map with azimuth and elevation plus other details from your city location.

Track the satellite on the map from your city or location and see movement details for azimuth, elevation, latitude, longitude, range, height, and movement on the map or in text.







IsCatalogInMostPopularTable: catalog: 48332, numindb: 26
Update: records affected: 1



GetName: 48332 STARLINK-2511

Hit Count: updated at: Thu, 24 Jun 2021 03:25:05 GMT